User: anonymous
Location: Unspecified
(0.0000°N, 0.0000°E)
Time: 15:10:16
(UTC+00:00)
Language:

RAX-2 - Orbit

View from above orbital plane
View from above orbital plane
View from above satellite
View from above satellite

Ground track
Ground track

The orbit data is extracted from the following two-line orbital elements,

1 37853U 11061D   14293.23577169  .00012360  00000-0  81803-3 0  9405
2 37853 101.7042 022.6085 0211057 054.5764 002.6811 14.91139572161281
Epoch (UTC): 20 October 2014 05:39:30
Eccentricity: 0.0211057
inclination: 101.7042°
perigee height: 447 km
apogee height: 741 km
right ascension of ascending node: 22.6085°
argument of perigee: 54.5764°
revolutions per day: 14.91139572
mean anomaly at epoch: 2.6811°
orbit number at epoch: 16128

The dashed part of the orbit path shows where the satellite is in the earth's shadow,  

DLR